Location: Powder Track
(41.8531°N, 72.3584°W)
Time: 08:40:38
(UTC+00:00)

Altair - Pass Details

Date: 01 August 2021
Orbit: 1501 x 1682 km, 47.2° (Epoch: 19 September)

Event Time Altitude Azimuth Distance (km) Brightness Sun altitude
Exits shadow 07:54:18 15° 260° (W) 3,362 8.8 -17.4°
Maximum altitude 08:02:31 72° 344° (NNW) 1,580 7.6 -16.3°
Drops below altitude 10° 08:11:42 10° 69° (ENE) 3,655 10.6 -15.1°
Sets 08:14:44 0° 72° (ENE) 4,637 11.3 -14.6°
